Showing default

TJS-11, 59020

Orbit data source: Space-Track

TJS-11, 59020 is a Chinese payload satellite in GEO that was launched on Fri, 23 Feb 2024 UTC via a CHANG ZHENG 5 launch vehicle from the Wenchang Satellite Launch Center (WSC). Payload-class satellites include a variety of spacecraft equipped with specific instruments for various scientific and technological missions. These include communications satellites like Starlink; space stations such as the ISS; scientific satellites like the Hubble; Earth observation satellites from companies like Planet Labs, Umbra, and HawkEye 360; GPS; miniature CubeSats for education and research; and military/defense satellites.

Not visible in the next 10 days
Identifier
59020, 2024-037A
Orbit
GEO
Country
Flag of CNCN / PRC
Related business
Manufacturer
CAST
Mission
Operational Defense Sigint
Bus & Motor
TJS11, Unknown motor
Mass
~10,000 kg wet, ~6,000 kg dry
Launch date (UTC)
2024-02-23 (2 years ago)
Launch vehicle
CHANG ZHENG 5
Launch site
Wenchang Satellite Launch Center (WSC)
Object type
Payload
Rocket body
Debris
Shape & HBR
Box + 2 Pan + 1 Dish, 15.0 m
Radar Cross Section
63.841 m²

Expand to show TLE details & history
Last TLE update: 21 hours ago

TLE from 21 hours ago
0 TJS-11
1 59020U 24037A   26145.53628514 -.00000375  00000-0  00000+0 0  9999
2 59020   4.2280 326.8173 0004094 107.9069 121.7714  1.00276122  8353
Epoch: 2026-05-25T12:52Z
TLE epoch observation values (Epoch: 2026-05-25T12:52:15.036Z)
Latitude
-3.24468°
Longitude
120.2731°
Altitude
35,794.53 km
Speed
3.074 km/s
True Right ascension
13h 05m 50s
True Declination
-3° 14' 29"
Sunlit
Object was in daylight at epoch
Visualization orbit readout
Latitude
Unknown
Longitude
Unknown
Altitude
Unknown
Speed
Unknown
Apparent Right ascension
Unknown
Apparent Declination
Unknown
Sunlit
N/A
Visualization observer readout
Local Sidereal Time
19:07:39
Azimuth
Unknown
Elevation
Unknown
Doppler factor
Unknown
Orbital elements
Apogee altitude
35,803.703 km
Perigee altitude
35,769.179 km
Semi-major axis
42,164.578 km
Eccentricity
0.00041
Inclination
4.228°
RAAN
326.8173°
Arg. of periapsis
107.9069°
True anomaly
121.81127°
Mean anomaly
121.7714°
Eccentric anomaly
121.79134°
Mean motion
0.25068 °/min
Orbital period
1,436.09 mins
BSTAR
0
Loading maneuver chart data...
Computing Atmospheric mass density...
Loading historical data...
Loading historical data...
Loading historical data...
Loading historical data...
Loading historical data...
Loading historical data...
Loading historical data...
Other satellites on launch #37 in the year 2024 (2024-02-23 UTC)

Documentation

Showing up to 5 results
|